| time (UTC) | temp F | wind direction | speed knots | gust knots | rain 1hr in | rain 24hr in | rain mn in | humidity % | barometer mb |
| 20260906034543 | 53 | 274 | 0.9 | 7.0 | 0.00 | 0.00 | 0.00 | 92 | 1005.2 |
| 20260906033050 | 52 | 244 | 1.7 | 11.3 | 0.00 | 0.00 | 0.00 | 92 | 1005.1 |
| 20260906031640 | 52 | 258 | 0.9 | 8.7 | 0.00 | 0.00 | 0.00 | 92 | 1005.0 |
| 20260906030039 | 52 | 237 | 2.6 | 9.6 | 0.00 | 0.00 | 0.00 | 92 | 1004.9 |
| 20260906024541 | 52 | 272 | 0.0 | 4.3 | 0.00 | 0.00 | 0.00 | 92 | 1004.7 |
| 20260906023044 | 52 | 228 | 0.0 | 6.1 | 0.00 | 0.00 | 0.00 | 91 | 1004.7 |
| 20260906021530 | 53 | 262 | 0.0 | 6.1 | 0.00 | 0.00 | 0.00 | 91 | 1004.6 |
| 20260906020028 | 53 | 272 | 1.7 | 7.8 | 0.00 | 0.00 | 0.00 | 90 | 1004.5 |
| 20260906014528 | 53 | 185 | 0.0 | 7.0 | 0.00 | 0.00 | 0.00 | 90 | 1004.5 |
| 20260906013035 | 53 | 254 | 1.7 | 7.8 | 0.00 | 0.00 | 0.00 | 90 | 1004.4 |
| 20260906011524 | 54 | 268 | 2.6 | 9.6 | 0.00 | 0.00 | 0.00 | 90 | 1004.3 |
| 20260906010023 | 54 | 231 | 0.0 | 7.8 | 0.00 | 0.00 | 0.00 | 90 | 1004.5 |
| 20260906004522 | 54 | 256 | 0.9 | 8.7 | 0.00 | 0.00 | 0.00 | 90 | 1004.3 |
| 20260906003020 | 54 | 204 | 2.6 | 12.2 | 0.00 | 0.00 | 0.00 | 90 | 1004.3 |
| 20260906001520 | 54 | 237 | 1.7 | 9.6 | 0.00 | 0.00 | 0.00 | 90 | 1004.3 |
| 20260906000035 | 54 | 247 | 0.9 | 7.8 | 0.00 | 0.00 | 0.00 | 90 | 1004.3 |
| 20260905234516 | 54 | 310 | 0.9 | 6.1 | 0.00 | 0.00 | 0.00 | 90 | 1004.3 |
| 20260905233015 | 54 | 241 | 0.9 | 11.3 | 0.00 | 0.00 | 0.00 | 90 | 1004.4 |
| 20260905231515 | 54 | 256 | 1.7 | 13.0 | 0.00 | 0.00 | 0.00 | 90 | 1004.2 |
| 20260905230013 | 54 | 234 | 2.6 | 7.8 | 0.00 | 0.00 | 0.00 | 90 | 1004.2 |
| 20260905224513 | 54 | 244 | 0.9 | 8.7 | 0.00 | 0.00 | 0.00 | 90 | 1004.4 |
| 20260905223011 | 54 | 248 | 2.6 | 12.2 | 0.00 | 0.00 | 0.00 | 90 | 1004.3 |
| 20260905221507 | 54 | 224 | 0.9 | 9.6 | 0.00 | 0.00 | 0.00 | 90 | 1004.2 |
| 20260905220006 | 54 | 246 | 3.5 | 12.2 | 0.00 | 0.00 | 0.00 | 90 | 1004.3 |
| 20260905214505 | 54 | 249 | 0.0 | 13.0 | 0.00 | 0.00 | 0.00 | 90 | 1004.2 |
| 20260905213105 | 55 | 232 | 4.3 | 13.9 | 0.00 | 0.00 | 0.00 | 89 | 1004.3 |
| 20260905211600 | 55 | 251 | 1.7 | 12.2 | 0.00 | 0.00 | 0.00 | 88 | 1004.3 |
| 20260905210113 | 55 | 230 | 0.0 | 7.0 | 0.00 | 0.00 | 0.00 | 89 | 1004.3 |
| 20260905204601 | 55 | 243 | 2.6 | 10.4 | 0.00 | 0.00 | 0.00 | 89 | 1004.2 |
| 20260905203055 | 55 | 248 | 1.7 | 13.0 | 0.00 | 0.00 | 0.00 | 89 | 1004.3 |
| 20260905201551 | 55 | 227 | 0.9 | 8.7 | 0.00 | 0.00 | 0.00 | 89 | 1004.1 |
| 20260905200049 | 55 | 267 | 2.6 | 8.7 | 0.00 | 0.00 | 0.00 | 89 | 1004.1 |
| 20260905194559 | 55 | 225 | 3.5 | 10.4 | 0.00 | 0.00 | 0.00 | 89 | 1004.1 |
| 20260905193048 | 55 | 258 | 2.6 | 11.3 | 0.00 | 0.00 | 0.00 | 88 | 1004.2 |
| 20260905191550 | 55 | 204 | 0.9 | 13.0 | 0.00 | 0.00 | 0.00 | 88 | 1004.1 |
| 20260905190046 | 56 | 226 | 1.7 | 12.2 | 0.00 | 0.00 | 0.00 | 88 | 1003.9 |
| 20260905184607 | 56 | 257 | 2.6 | 14.8 | 0.00 | 0.00 | 0.00 | 89 | 1003.9 |
| 20260905183048 | 56 | 253 | 0.9 | 9.6 | 0.00 | 0.00 | 0.00 | 88 | 1004.0 |
| 20260905181555 | 56 | 240 | 5.2 | 13.0 | 0.00 | 0.00 | 0.00 | 88 | 1004.0 |
| 20260905180049 | 56 | 187 | 7.8 | 17.4 | 0.00 | 0.00 | 0.00 | 88 | 1004.0 |
| 20260905174541 | 56 | 237 | 3.5 | 9.6 | 0.00 | 0.00 | 0.00 | 88 | 1003.9 |
| 20260905173040 | 56 | 229 | 1.7 | 10.4 | 0.00 | 0.00 | 0.00 | 88 | 1003.8 |
| 20260905171541 | 56 | 223 | 2.6 | 13.0 | 0.00 | 0.00 | 0.00 | 88 | 1003.6 |
| 20260905170039 | 56 | 254 | 0.9 | 13.9 | 0.00 | 0.00 | 0.00 | 88 | 1003.5 |
| 20260905164535 | 57 | 212 | 0.9 | 8.7 | 0.00 | 0.00 | 0.00 | 88 | 1003.3 |
| 20260905163033 | 56 | 249 | 5.2 | 15.6 | 0.00 | 0.00 | 0.00 | 88 | 1003.2 |
| 20260905161531 | 57 | 249 | 0.9 | 10.4 | 0.00 | 0.00 | 0.00 | 88 | 1003.1 |
| 20260905160030 | 57 | 293 | 1.7 | 12.2 | 0.00 | 0.00 | 0.00 | 88 | 1002.9 |
| 20260905154535 | 57 | 220 | 0.9 | 9.6 | 0.00 | 0.00 | 0.00 | 91 | 1002.7 |
| 20260905153024 | 56 | 335 | 2.6 | 16.5 | 0.00 | 0.00 | 0.00 | 91 | 1002.7 |
| 20260905151525 | 56 | 233 | 0.0 | 8.7 | 0.00 | 0.00 | 0.00 | 90 | 1002.5 |
| 20260905150022 | 57 | 193 | 0.0 | 8.7 | 0.00 | 0.00 | 0.00 | 90 | 1002.5 |
| 20260905144521 | 57 | 238 | 0.9 | 12.2 | 0.00 | 0.00 | 0.00 | 89 | 1002.5 |
| 20260905143020 | 56 | 232 | 1.7 | 9.6 | 0.00 | 0.00 | 0.00 | 89 | 1002.4 |
| 20260905141521 | 56 | 254 | 1.7 | 11.3 | 0.00 | 0.00 | 0.00 | 89 | 1002.3 |
| 20260905140017 | 57 | 254 | 2.6 | 12.2 | 0.00 | 0.00 | 0.00 | 88 | 1002.2 |
| 20260905134516 | 59 | 233 | 6.1 | 20.0 | 0.00 | 0.00 | 0.00 | 85 | 1002.0 |
| 20260905133022 | 61 | 244 | 7.8 | 15.6 | 0.00 | 0.00 | 0.00 | 78 | 1001.1 |
| 20260905131511 | 62 | 231 | 7.8 | 17.4 | 0.00 | 0.00 | 0.00 | 78 | 1001.1 |
| 20260905130015 | 62 | 184 | 4.3 | 13.0 | 0.00 | 0.00 | 0.00 | 79 | 1000.8 |
| 20260905124508 | 61 | 270 | 0.9 | 9.6 | 0.00 | 0.00 | 0.00 | 84 | 1001.0 |
| 20260905123007 | 60 | 318 | 2.6 | 15.6 | 0.00 | 0.00 | 0.00 | 83 | 1000.9 |
| 20260905121506 | 60 | 229 | 3.5 | 13.9 | 0.00 | 0.00 | 0.00 | 86 | 1000.9 |
| 20260905120004 | 60 | 268 | 8.7 | 17.4 | 0.00 | 0.00 | 0.00 | 81 | 1000.8 |
| 20260905114502 | 61 | 247 | 5.2 | 14.8 | 0.00 | 0.00 | 0.00 | 80 | 1000.6 |
| 20260905113100 | 61 | 206 | 7.0 | 15.6 | 0.00 | 0.00 | 0.00 | 80 | 1000.5 |
| 20260905111643 | 61 | 260 | 8.7 | 15.6 | 0.00 | 0.00 | 0.00 | 83 | 1000.6 |
| 20260905110055 | 59 | 224 | 5.2 | 16.5 | 0.00 | 0.00 | 0.00 | 88 | 1000.5 |
| 20260905104600 | 57 | 250 | 3.5 | 13.0 | 0.00 | 0.00 | 0.00 | 90 | 1000.4 |
| 20260905103054 | 58 | 236 | 3.5 | 19.1 | 0.00 | 0.00 | 0.00 | 88 | 1000.3 |
| 20260905101559 | 59 | 229 | 7.8 | 15.6 | 0.00 | 0.00 | 0.00 | 89 | 999.9 |
| 20260905100051 | 58 | 252 | 1.7 | 11.3 | 0.00 | 0.00 | 0.00 | 91 | 999.6 |
| 20260905094547 | 58 | 211 | 4.3 | 11.3 | 0.00 | 0.00 | 0.00 | 91 | 999.6 |
| 20260905093046 | 58 | 300 | 2.6 | 11.3 | 0.00 | 0.00 | 0.00 | 91 | 999.4 |
| 20260905091545 | 58 | 238 | 2.6 | 15.6 | 0.00 | 0.00 | 0.00 | 88 | 999.2 |
| 20260905090044 | 59 | 235 | 6.1 | 20.0 | 0.00 | 0.00 | 0.00 | 88 | 999.2 |
| 20260905084549 | 60 | 249 | 11.3 | 20.0 | 0.00 | 0.00 | 0.00 | 86 | 999.0 |
| 20260905083040 | 59 | 283 | 7.0 | 14.8 | 0.00 | 0.00 | 0.00 | 89 | 998.7 |
| 20260905081538 | 58 | 229 | 8.7 | 25.2 | 0.00 | 0.00 | 0.00 | 88 | 998.4 |
| 20260905080045 | 60 | 251 | 7.8 | 20.0 | 0.00 | 0.00 | 0.00 | 85 | 998.1 |
| 20260905074538 | 59 | 262 | 5.2 | 14.8 | 0.00 | 0.00 | 0.00 | 88 | 997.8 |
| 20260905073032 | 58 | 276 | 8.7 | 27.8 | 0.00 | 0.00 | 0.00 | 90 | 997.8 |
| 20260905071533 | 58 | 238 | 6.1 | 12.2 | 0.00 | 0.00 | 0.00 | 92 | 997.4 |
| 20260905070027 | 57 | 232 | 5.2 | 10.4 | 0.00 | 0.00 | 0.00 | 92 | 997.4 |
| 20260905064526 | 56 | 245 | 3.5 | 10.4 | 0.00 | 0.00 | 0.00 | 92 | 997.3 |
| 20260905063024 | 56 | 193 | 3.5 | 8.7 | 0.00 | 0.00 | 0.00 | 93 | 996.9 |
| 20260905061529 | 56 | 238 | 3.5 | 8.7 | 0.00 | 0.00 | 0.00 | 94 | 997.0 |
| 20260905060026 | 56 | 246 | 1.7 | 8.7 | 0.00 | 0.00 | 0.00 | 95 | 996.7 |
| 20260905054518 | 56 | 217 | 3.5 | 8.7 | 0.00 | 0.00 | 0.00 | 95 | 996.8 |
| 20260905053017 | 56 | 233 | 1.7 | 7.8 | 0.00 | 0.00 | 0.00 | 95 | 996.6 |
| 20260905051518 | 56 | 200 | 1.7 | 9.6 | 0.00 | 0.00 | 0.00 | 95 | 996.3 |
| 20260905050017 | 56 | 170 | 0.9 | 5.2 | 0.00 | 0.00 | 0.00 | 94 | 996.0 |
| 20260905044514 | 56 | 239 | 0.0 | 4.3 | 0.00 | 0.00 | 0.00 | 94 | 996.4 |
| 20260905043014 | 56 | 227 | 0.9 | 7.0 | 0.00 | 0.00 | 0.00 | 94 | 996.4 |
| 20260905041513 | 55 | 225 | 0.9 | 7.8 | 0.00 | 0.00 | 0.00 | 95 | 996.4 |
| 20260905040010 | 55 | 235 | 1.7 | 7.8 | 0.00 | 0.00 | 0.00 | 94 | 996.4 |